Portada
METAR-TAF:

METAR-TAF

Aeroports :

Munising, Michigan, Estats Units d'Amèrica

latitud: 46-24N, longitud: 086-39W, altitud: 187 m

Observació

L'informe es va fer fa 45 minuts, a les 17:56 UTC
Vent 10 kt del Nord-Oest
Temperatura 23°C
Humitat 65%
Pressió 1007 hPa

METAR: KP53 251756Z AUTO 32010KT 23/16 A2973 RMK AO1 SLP067 T02280156 10289 20189 56016

Hora: 14:41 (18:41 UTC)


TAF: manca

Observacions i pronòstics meteorològics de més de 4000 aeroports (METAR i TAF).

Les estacions disponibles són els punts grocs i vermells al mapa.

Posi el ratolí al punt desitjat per veure el nom de l'estació.

Feu clic per veure les observacions i els pronòstics meteorològics.

Per canviar el mapa: feu clic els botons verds amb una creu de color negre per apropar; al botó verd amb un guió per allunyar la imatge; o en les fletxes verdes per a mapes adjacents.


METAR-TAF: